• In Romania
  • List of Countries
  • For 7 days
  • Water Temperature
  • Satellite Maps
  • Weather Map
  • Weather Widgets
  • user-avatar
    Login

    Hourly Weather Perth

    Today, 22 July, Saturday

    Time Temperature Precipitation Wind Pressure Humidity
    00:00 +14°C° 0.3 mm 4 mps 761 mmHg 87%
    01:00 +14°C° 0.3 mm 4 mps 761 mmHg 87%
    02:00 +14°C° 0 mm 3 mps 760 mmHg 86%
    03:00 +14°C° 0.1 mm 3 mps 761 mmHg 85%
    04:00 +14°C° 0.1 mm 3 mps 761 mmHg 83%
    05:00 +14°C° 0.1 mm 3 mps 761 mmHg 82%
    06:00 +14°C° 0.1 mm 3 mps 761 mmHg 82%
    07:00 +14°C° 0.1 mm 3 mps 761 mmHg 81%
    08:00 +15°C° 0 mm 2 mps 762 mmHg 80%
    09:00 +16°C° 0.1 mm 3 mps 762 mmHg 78%
    10:00 +16°C° 0.1 mm 3 mps 762 mmHg 75%
    11:00 +17°C° 0.1 mm 4 mps 762 mmHg 72%
    12:00 +18°C° 0.1 mm 4 mps 762 mmHg 69%
    13:00 +17°C° 0.1 mm 5 mps 761 mmHg 66%
    14:00 +19°C° 0 mm 4 mps 761 mmHg 63%
    15:00 +18°C° 0.1 mm 4 mps 761 mmHg 66%
    16:00 +17°C° 0.1 mm 4 mps 761 mmHg 69%
    17:00 +17°C° 0.1 mm 4 mps 761 mmHg 73%
    18:00 +15°C° 0.1 mm 4 mps 762 mmHg 75%
    19:00 +14°C° 0.1 mm 3 mps 762 mmHg 78%
    20:00 +14°C° 0.1 mm 3 mps 762 mmHg 81%
    21:00 +13°C° 0.1 mm 3 mps 762 mmHg 82%
    22:00 +13°C° 0.1 mm 3 mps 762 mmHg 82%
    23:00 +13°C° 0.1 mm 3 mps 762 mmHg 83%

    Tomorrow, 23 July, Sunday

    Time Temperature Precipitation Wind Pressure Humidity
    00:00 +13°C° 0.1 mm 3 mps 762 mmHg 83%
    01:00 +13°C° 0.1 mm 3 mps 762 mmHg 84%
    02:00 +13°C° 0.1 mm 3 mps 762 mmHg 85%
    03:00 +12°C° 0.1 mm 3 mps 762 mmHg 85%
    04:00 +12°C° 0.1 mm 4 mps 762 mmHg 86%
    05:00 +12°C° 0.1 mm 4 mps 761 mmHg 87%
    06:00 +12°C° 0.3 mm 4 mps 761 mmHg 87%
    07:00 +12°C° 0.3 mm 4 mps 761 mmHg 88%
    08:00 +12°C° 0.3 mm 5 mps 761 mmHg 89%
    09:00 +14°C° 0.6 mm 5 mps 761 mmHg 84%
    10:00 +15°C° 0.6 mm 6 mps 761 mmHg 79%
    11:00 +17°C° 0.6 mm 7 mps 761 mmHg 74%
    12:00 +17°C° 0.5 mm 7 mps 761 mmHg 74%
    13:00 +17°C° 0.5 mm 7 mps 760 mmHg 74%
    14:00 +17°C° 0.5 mm 7 mps 760 mmHg 74%
    15:00 +16°C° 0.4 mm 6 mps 760 mmHg 77%
    16:00 +16°C° 0.4 mm 6 mps 760 mmHg 80%
    17:00 +15°C° 0.4 mm 5 mps 760 mmHg 82%
    18:00 +14°C° 0.1 mm 4 mps 761 mmHg 83%
    19:00 +14°C° 0.1 mm 4 mps 761 mmHg 83%
    20:00 +13°C° 0.1 mm 4 mps 762 mmHg 83%
    21:00 +13°C° 0 mm 3 mps 762 mmHg 82%
    22:00 +13°C° 0 mm 3 mps 762 mmHg 81%
    23:00 +13°C° 0 mm 3 mps 762 mmHg 80%

    Day after tomorrow, 24 July, Monday

    Time Temperature Precipitation Wind Pressure Humidity
    00:00 +12°C° 0.1 mm 3 mps 762 mmHg 80%
    01:00 +12°C° 0.1 mm 3 mps 762 mmHg 80%
    02:00 +13°C° 0.1 mm 2 mps 762 mmHg 79%
    03:00 +13°C° 0 mm 2 mps 762 mmHg 79%
    04:00 +13°C° 0 mm 2 mps 762 mmHg 79%
    05:00 +12°C° 0 mm 2 mps 762 mmHg 79%
    06:00 +13°C° 0 mm 2 mps 762 mmHg 79%
    07:00 +13°C° 0 mm 2 mps 763 mmHg 80%
    08:00 +13°C° 0 mm 1 mps 763 mmHg 80%
    09:00 +14°C° 0.1 mm 2 mps 763 mmHg 75%
    10:00 +16°C° 0.1 mm 2 mps 764 mmHg 71%
    11:00 +17°C° 0.1 mm 3 mps 764 mmHg 67%
    12:00 +17°C° 0.2 mm 3 mps 763 mmHg 66%
    13:00 +17°C° 0.2 mm 4 mps 763 mmHg 65%
    14:00 +17°C° 0.2 mm 4 mps 762 mmHg 64%
    15:00 +17°C° 0.1 mm 4 mps 762 mmHg 67%
    16:00 +16°C° 0.1 mm 3 mps 763 mmHg 69%
    17:00 +16°C° 0.1 mm 3 mps 763 mmHg 72%
    18:00 +14°C° 0 mm 3 mps 763 mmHg 75%
    19:00 +14°C° 0 mm 2 mps 763 mmHg 77%
    20:00 +13°C° 0 mm 2 mps 764 mmHg 79%
    21:00 +12°C° 0 mm 1 mps 764 mmHg 80%
    22:00 +12°C° 0 mm 1 mps 764 mmHg 80%
    23:00 +12°C° 0 mm 1 mps 764 mmHg 80%

    25 July, Tuesday

    Time Temperature Precipitation Wind Pressure Humidity
    00:00 +11°C° 0 mm 1 mps 764 mmHg 82%
    01:00 +11°C° 0 mm 1 mps 764 mmHg 83%
    02:00 +11°C° 0 mm 1 mps 764 mmHg 85%
    03:00 +11°C° 0 mm 1 mps 764 mmHg 86%
    04:00 +9°C° 0 mm 2 mps 764 mmHg 86%
    05:00 +9°C° 0 mm 2 mps 764 mmHg 87%
    06:00 +9°C° 0 mm 2 mps 764 mmHg 87%
    07:00 +9°C° 0 mm 2 mps 765 mmHg 86%
    08:00 +10°C° 0 mm 2 mps 765 mmHg 85%
    09:00 +13°C° 0 mm 2 mps 765 mmHg 78%
    10:00 +14°C° 0 mm 3 mps 765 mmHg 71%
    11:00 +17°C° 0 mm 3 mps 765 mmHg 64%
    12:00 +17°C° 0 mm 3 mps 764 mmHg 62%
    13:00 +18°C° 0 mm 3 mps 763 mmHg 59%
    14:00 +18°C° 0 mm 3 mps 763 mmHg 56%
    15:00 +18°C° 0 mm 3 mps 763 mmHg 59%
    16:00 +17°C° 0 mm 2 mps 763 mmHg 62%
    17:00 +17°C° 0 mm 2 mps 763 mmHg 66%
    18:00 +15°C° 0 mm 2 mps 763 mmHg 70%
    19:00 +14°C° 0 mm 2 mps 763 mmHg 75%
    20:00 +13°C° 0 mm 2 mps 764 mmHg 80%
    21:00 +13°C° 0 mm 2 mps 764 mmHg 81%
    22:00 +13°C° 0 mm 2 mps 763 mmHg 82%
    23:00 +13°C° 0 mm 2 mps 763 mmHg 83%

    26 July, Wednesday

    Time Temperature Precipitation Wind Pressure Humidity
    00:00 +12°C° 0 mm 3 mps 763 mmHg 84%
    01:00 +11°C° 0 mm 3 mps 763 mmHg 85%
    02:00 +11°C° 0 mm 3 mps 762 mmHg 86%
    03:00 +11°C° 0 mm 3 mps 762 mmHg 87%
    04:00 +11°C° 0 mm 4 mps 762 mmHg 88%
    05:00 +11°C° 0 mm 4 mps 762 mmHg 88%
    06:00 +11°C° 0 mm 4 mps 762 mmHg 87%
    07:00 +11°C° 0 mm 4 mps 762 mmHg 87%
    08:00 +12°C° 0 mm 5 mps 762 mmHg 86%
    09:00 +13°C° 0.2 mm 5 mps 762 mmHg 82%
    10:00 +15°C° 0.2 mm 5 mps 762 mmHg 79%
    11:00 +17°C° 0.2 mm 6 mps 762 mmHg 75%
    12:00 +17°C° 0.6 mm 6 mps 762 mmHg 77%
    13:00 +17°C° 0.6 mm 6 mps 761 mmHg 78%
    14:00 +19°C° 0.6 mm 5 mps 761 mmHg 80%
    15:00 +17°C° 0.2 mm 5 mps 761 mmHg 81%
    16:00 +18°C° 0.2 mm 4 mps 762 mmHg 82%
    17:00 +17°C° 0.2 mm 3 mps 762 mmHg 83%
    18:00 +16°C° 0 mm 3 mps 762 mmHg 84%
    19:00 +15°C° 0 mm 2 mps 763 mmHg 85%
    20:00 +14°C° 0 mm 2 mps 764 mmHg 87%
    21:00 +14°C° 0 mm 1 mps 764 mmHg 87%
    22:00 +13°C° 0 mm 1 mps 764 mmHg 88%
    23:00 +13°C° 0 mm 1 mps 764 mmHg 88%

    27 July, Thursday

    Time Temperature Precipitation Wind Pressure Humidity
    00:00 +13°C° 0 mm 1 mps 763 mmHg 89%
    01:00 +13°C° 0 mm 2 mps 763 mmHg 91%
    02:00 +12°C° 0 mm 2 mps 762 mmHg 92%
    03:00 +11°C° 0 mm 3 mps 762 mmHg 92%
    04:00 +11°C° 0 mm 3 mps 762 mmHg 92%
    05:00 +11°C° 0 mm 3 mps 762 mmHg 93%
    06:00 +12°C° 0 mm 3 mps 762 mmHg 93%
    07:00 +12°C° 0 mm 3 mps 762 mmHg 93%
    08:00 +12°C° 0 mm 4 mps 762 mmHg 94%
    09:00 +14°C° 0 mm 4 mps 762 mmHg 88%
    10:00 +16°C° 0 mm 5 mps 761 mmHg 83%
    11:00 +19°C° 0 mm 5 mps 761 mmHg 77%
    12:00 +20°C° 0 mm 5 mps 760 mmHg 72%
    13:00 +21°C° 0 mm 6 mps 759 mmHg 66%
    14:00 +22°C° 0 mm 6 mps 758 mmHg 61%
    15:00 +22°C° 0 mm 5 mps 758 mmHg 63%
    16:00 +21°C° 0 mm 5 mps 758 mmHg 65%
    17:00 +21°C° 0 mm 4 mps 757 mmHg 67%
    18:00 +19°C° 0 mm 4 mps 757 mmHg 70%
    19:00 +18°C° 0 mm 4 mps 757 mmHg 73%
    20:00 +16°C° 0 mm 5 mps 757 mmHg 77%
    21:00 +15°C° 0 mm 5 mps 757 mmHg 78%
    22:00 +15°C° 0 mm 6 mps 756 mmHg 78%
    23:00 +15°C° 0 mm 6 mps 756 mmHg 79%
    Show more